GW5626 Weather Reports


Display with metric or nautical units.
time (UTC)temp
F
wind
direction
speed
MPH
gust
MPH
rain 1hr
in
rain 24hr
in
rain mn
in
humidity
%
barometer
mb
20260503214937 89 166 2.0 7.0 0.00 0.00 0.00 27 1020.9
20260503214434 88 221 2.0 3.0 0.00 0.00 0.00 28 1020.9
20260503213931 88 58 3.0 6.0 0.00 0.00 0.00 29 1021.2
20260503213430 87 171 5.0 8.0 0.00 0.00 0.00 30 1020.9
20260503212925 87 8 7.0 9.0 0.00 0.00 0.00 32 1020.9
20260503212423 87 140 2.0 6.0 0.00 0.00 0.00 33 1021.0
20260503211920 87 56 3.0 6.0 0.00 0.00 0.00 33 1021.2
20260503211417 87 183 3.0 6.0 0.00 0.00 0.00 32 1021.2
20260503210912 87 42 4.0 4.0 0.00 0.00 0.00 33 1021.2
20260503210410 86 251 2.0 6.0 0.00 0.00 0.00 34 1021.4
20260503205904 86 48 3.0 8.0 0.00 0.00 0.00 33 1021.4
20260503205402 86 86 3.0 6.0 0.00 0.00 0.00 33 1021.5
20260503204858 86 94 2.0 3.0 0.00 0.00 0.00 35 1021.5
20260503204355 87 205 2.0 4.0 0.00 0.00 0.00 34 1021.6
20260503203852 86 62 1.0 3.0 0.00 0.00 0.00 37 1021.8
20260503203349 86 171 1.0 2.0 0.00 0.00 0.00 41 1022.0
20260503202846 85 212 2.0 7.0 0.00 0.00 0.00 37 1021.8
20260503202345 85 48 2.0 3.0 0.00 0.00 0.00 39 1022.0
20260503201843 84 112 2.0 6.0 0.00 0.00 0.00 38 1022.0
20260503201339 84 102 2.0 4.0 0.00 0.00 0.00 39 1022.0
20260503200837 84 120 4.0 7.0 0.00 0.00 0.00 38 1021.7
20260503200332 84 203 2.0 6.0 0.00 0.00 0.00 39 1022.0
20260503195830 83 192 2.0 4.0 0.00 0.00 0.00 39 1022.2
20260503195326 82 43 2.0 8.0 0.00 0.00 0.00 40 1022.1
20260503194824 82 47 4.0 7.0 0.00 0.00 0.00 39 1022.4
20260503194319 82 162 3.0 7.0 0.00 0.00 0.00 40 1022.4
20260503193816 82 75 2.0 3.0 0.00 0.00 0.00 46 1022.5
20260503193312 81 37 1.0 8.0 0.00 0.00 0.00 42 1022.7
20260503192808 81 136 2.0 4.0 0.00 0.00 0.00 42 1022.6
20260503192305 81 150 2.0 6.0 0.00 0.00 0.00 43 1022.5
20260503191800 81 67 1.0 6.0 0.00 0.00 0.00 44 1022.8
20260503191257 80 192 3.0 6.0 0.00 0.00 0.00 43 1022.6
20260503190754 80 280 2.0 7.0 0.00 0.00 0.00 45 1022.9
20260503190251 79 72 2.0 4.0 0.00 0.00 0.00 46 1022.8
20260503185748 79 83 1.0 4.0 0.00 0.00 0.00 47 1022.8
20260503185243 79 186 1.0 3.0 0.00 0.00 0.00 47 1023.0
20260503184738 79 109 4.0 6.0 0.00 0.00 0.00 46 1023.1
20260503184235 78 220 0.0 3.0 0.00 0.00 0.00 50 1023.1
20260503183731 77 131 1.0 3.0 0.00 0.00 0.00 51 1023.0
20260503183229 77 96 1.0 4.0 0.00 0.00 0.00 51 1023.2
20260503182726 77 209 2.0 4.0 0.00 0.00 0.00 50 1023.2
20260503182225 77 174 0.0 4.0 0.00 0.00 0.00 54 1023.4
20260503181721 76 25 2.0 2.0 0.00 0.00 0.00 53 1023.1
20260503181218 76 67 1.0 2.0 0.00 0.00 0.00 54 1023.3
20260503180714 75 176 0.0 2.0 0.00 0.00 0.00 57 1023.4
20260503180213 76 62 3.0 3.0 0.00 0.00 0.00 53 1023.3
20260503175710 75 304 1.0 3.0 0.00 0.00 0.00 51 1023.6
20260503175208 75 210 2.0 3.0 0.00 0.00 0.00 51 1023.5
20260503174703 74 198 1.0 1.0 0.00 0.00 0.00 55 1023.4
20260503174201 73 186 2.0 2.0 0.00 0.00 0.00 54 1023.6
20260503173656 73 179 0.0 2.0 0.00 0.00 0.00 56 1023.6
20260503173152 73 279 1.0 2.0 0.00 0.00 0.00 57 1023.6
20260503172650 73 114 2.0 3.0 0.00 0.00 0.00 58 1023.7
20260503172147 72 168 0.0 3.0 0.00 0.00 0.00 58 1023.7
20260503171643 72 205 2.0 3.0 0.00 0.00 0.00 58 1023.4
20260503171140 71 204 1.0 3.0 0.00 0.00 0.00 57 1023.9
20260503170637 71 151 0.0 2.0 0.00 0.00 0.00 59 1023.8
20260503170134 70 67 2.0 3.0 0.00 0.00 0.00 60 1023.7
20260503150525 60 192 0.0 1.0 0.00 0.00 0.00 84 1024.1
20260503131419 52 198 0.0 0.0 0.00 0.00 0.00 96 1023.7
20260503130915 52 198 0.0 0.0 0.00 0.00 0.00 96 1023.8
20260503130413 52 182 0.0 0.0 0.00 0.00 0.00 96 1023.6
20260503110817 53 221 0.0 0.0 0.00 0.00 0.00 94 1024.2
20260503110314 53 221 0.0 0.0 0.00 0.00 0.00 93 1024.2
20260503100240 55 218 0.0 0.0 0.00 0.00 0.00 90 1024.2
20260503090159 57 195 0.0 1.0 0.00 0.00 0.00 86 1024.2
20260503081636 58 181 0.0 1.0 0.00 0.00 0.00 86 1024.4
20260503081132 59 172 0.0 0.0 0.00 0.00 0.00 86 1024.2
20260503080628 59 205 0.0 0.0 0.00 0.00 0.00 85 1024.1
20260503080125 59 19 1.0 2.0 0.00 0.00 0.00 85 1024.1
20260503072602 60 216 0.0 0.0 0.00 0.00 0.00 82 1024.3
20260503072059 61 187 0.0 1.0 0.00 0.00 0.00 81 1024.1
20260503071556 60 196 1.0 2.0 0.00 0.00 0.00 82 1024.3
20260503071053 60 181 0.0 0.0 0.00 0.00 0.00 82 1024.4
20260503070549 61 197 0.0 0.0 0.00 0.00 0.00 80 1024.2
20260503055009 62 194 1.0 1.0 0.00 0.01 0.01 78 1024.6
20260503054504 62 190 1.0 1.0 0.00 0.01 0.01 78 1024.7
20260503054002 62 194 0.0 0.0 0.00 0.01 0.01 78 1024.8
20260503053500 62 224 0.0 0.0 0.00 0.01 0.01 78 1024.9
20260503052956 62 224 0.0 0.0 0.00 0.01 0.01 77 1024.9
20260503052454 62 224 0.0 0.0 0.00 0.01 0.01 77 1024.9
20260503051950 62 224 0.0 0.0 0.00 0.01 0.01 76 1024.8
20260503051446 63 224 0.0 0.0 0.00 0.01 0.01 76 1024.7
20260503050943 63 215 0.0 0.0 0.00 0.01 0.01 75 1024.9
20260503050438 63 200 0.0 0.0 0.00 0.01 0.01 74 1024.8
20260503045937 64 207 0.0 0.0 0.00 0.01 0.01 74 1024.5
20260503045434 64 196 0.0 1.0 0.00 0.01 0.01 74 1024.6
20260503044931 64 206 0.0 0.0 0.00 0.01 0.01 73 1024.7
20260503044427 64 192 0.0 2.0 0.00 0.01 0.01 73 1024.8
20260503043925 64 189 0.0 1.0 0.00 0.01 0.01 73 1024.8
20260503043421 64 198 0.0 1.0 0.00 0.01 0.01 73 1024.5
20260503042918 64 192 0.0 1.0 0.00 0.01 0.01 73 1024.8
20260503042415 64 189 1.0 1.0 0.00 0.01 0.01 73 1024.7
20260503041911 64 193 0.0 0.0 0.00 0.01 0.01 72 1024.7
20260503041408 65 195 0.0 0.0 0.00 0.01 0.01 72 1024.6
20260503040906 65 197 0.0 0.0 0.00 0.01 0.01 71 1024.5
20260503040403 66 193 0.0 0.0 0.00 0.01 0.01 70 1024.6
20260503035859 66 185 1.0 2.0 0.00 0.01 0.01 69 1024.5
20260503035356 67 192 1.0 1.0 0.00 0.01 0.01 69 1024.4
20260503034854 67 251 0.0 0.0 0.00 0.01 0.01 68 1024.3
20260503034351 68 183 0.0 0.0 0.00 0.01 0.01 67 1024.2
20260503033848 68 183 0.0 0.0 0.00 0.01 0.01 67 1024.1
20260503033346 68 183 0.0 0.0 0.00 0.01 0.01 66 1024.0
20260503032844 69 182 0.0 0.0 0.00 0.01 0.01 66 1023.9
20260503032343 69 190 0.0 0.0 0.00 0.01 0.01 65 1023.8
20260503031840 69 186 0.0 0.0 0.00 0.01 0.01 65 1023.9
20260503031338 69 171 0.0 0.0 0.00 0.01 0.01 65 1023.7
20260503030834 70 155 0.0 2.0 0.00 0.01 0.01 64 1023.5
20260503030330 70 145 2.0 2.0 0.00 0.01 0.01 63 1023.3
20260503025826 71 77 1.0 3.0 0.00 0.01 0.01 63 1023.3
20260503025324 71 190 0.0 1.0 0.00 0.01 0.01 62 1023.2
20260503024821 72 138 1.0 1.0 0.00 0.01 0.01 59 1023.3
20260503024317 73 154 1.0 3.0 0.00 0.01 0.01 56 1023.0
20260503023815 73 138 3.0 3.0 0.00 0.01 0.01 55 1022.8
20260503023312 74 163 1.0 2.0 0.00 0.01 0.01 55 1022.7
20260503022809 74 172 1.0 1.0 0.00 0.01 0.01 54 1022.6
20260503022308 74 163 0.0 2.0 0.00 0.01 0.01 54 1022.6
20260503021805 74 156 0.0 2.0 0.00 0.01 0.01 54 1022.9
20260503021301 74 176 0.0 2.0 0.00 0.01 0.01 54 1022.6
20260503020759 74 31 1.0 2.0 0.00 0.01 0.01 54 1022.6
20260503020256 74 12 1.0 2.0 0.00 0.01 0.01 54 1022.4
20260503015752 75 161 0.0 1.0 0.00 0.01 0.01 54 1022.5
20260503015249 75 7 1.0 2.0 0.00 0.01 0.01 54 1022.6
20260503014745 75 170 3.0 6.0 0.00 0.01 0.01 52 1022.7
20260503014243 76 42 1.0 4.0 0.00 0.01 0.01 52 1022.5
20260503013740 78 176 1.0 3.0 0.00 0.01 0.01 50 1022.5
20260503013238 78 194 1.0 2.0 0.00 0.01 0.01 49 1022.6
20260503012735 78 172 0.0 3.0 0.00 0.01 0.01 49 1022.5
20260503012232 78 165 1.0 3.0 0.00 0.01 0.01 49 1022.5
20260503011728 78 186 1.0 2.0 0.00 0.01 0.01 50 1022.6
20260503011226 78 128 3.0 3.0 0.00 0.01 0.01 49 1022.5
20260503010722 78 95 1.0 3.0 0.00 0.01 0.01 50 1022.5
20260503010219 78 131 1.0 2.0 0.00 0.01 0.01 50 1022.5
20260503005716 77 158 1.0 1.0 0.00 0.01 0.01 51 1022.8
20260503005213 77 100 2.0 3.0 0.00 0.01 0.01 51 1022.6
20260503004709 77 127 5.0 7.0 0.00 0.01 0.01 50 1022.8
20260503004208 77 96 1.0 7.0 0.00 0.01 0.01 50 1022.8
20260503003705 78 75 2.0 4.0 0.00 0.01 0.01 50 1022.6
20260503003202 78 199 1.0 3.0 0.00 0.01 0.01 50 1022.7
20260503002658 79 121 3.0 4.0 0.00 0.01 0.01 49 1022.6
20260503002155 78 180 0.0 3.0 0.00 0.01 0.01 50 1022.7
20260503001651 78 68 2.0 3.0 0.00 0.01 0.01 50 1022.6
20260503001148 78 199 1.0 3.0 0.00 0.01 0.01 51 1022.6
20260503000646 78 193 2.0 4.0 0.00 0.01 0.01 49 1022.7
20260503000143 78 89 2.0 2.0 0.00 0.01 0.01 50 1022.8
20260502235639 78 134 0.0 3.0 0.00 0.01 0.01 50 1022.8
20260502235138 77 83 1.0 2.0 0.00 0.01 0.01 51 1023.0
20260502234633 77 127 2.0 6.0 0.00 0.01 0.01 52 1023.0
20260502234131 77 104 1.0 3.0 0.00 0.01 0.01 51 1023.1
20260502233627 77 74 2.0 6.0 0.00 0.01 0.01 50 1023.1
20260502233124 77 251 3.0 4.0 0.00 0.01 0.01 50 1023.2
20260502232619 77 68 2.0 3.0 0.00 0.01 0.01 51 1023.3
20260502232117 77 62 3.0 4.0 0.00 0.01 0.01 50 1023.3
20260502231614 77 122 2.0 2.0 0.00 0.01 0.01 50 1023.3
20260502231112 77 56 3.0 4.0 0.00 0.01 0.01 50 1023.5
20260502230610 77 193 1.0 6.0 0.00 0.01 0.01 49 1023.7
20260502230108 76 321 2.0 4.0 0.00 0.01 0.01 50 1023.7
20260502225603 76 184 4.0 7.0 0.00 0.01 0.01 50 1023.7
20260502225100 76 187 1.0 6.0 0.00 0.01 0.01 51 1023.8
20260502224556 75 153 2.0 6.0 0.00 0.01 0.01 53 1023.9
20260502224053 76 85 1.0 6.0 0.00 0.01 0.01 52 1024.0
20260502223551 75 5 2.0 4.0 0.00 0.01 0.01 53 1024.0
20260502223050 75 86 1.0 3.0 0.00 0.01 0.01 52 1024.1
20260502222546 75 21 2.0 4.0 0.00 0.01 0.01 51 1024.3
20260502222043 74 202 1.0 2.0 0.00 0.01 0.01 54 1024.4
20260502221538 72 176 1.0 1.0 0.00 0.01 0.01 58 1024.6
20260502221036 72 140 0.0 2.0 0.00 0.01 0.01 59 1024.7
20260502220531 71 137 0.0 1.0 0.00 0.01 0.01 59 1024.6
20260502220028 71 214 1.0 3.0 0.00 0.01 0.01 56 1024.9
20260502215526 71 132 0.0 3.0 0.00 0.01 0.01 59 1024.7